Location: Newark
(37.4425°N, 87.1467°W)
Time: 14:54:46
(UTC+00:00)

X-37B - Visible Passes

Search period start: 27 September 2020 00:00
Search period end: 07 October 2020 00:00
Orbit: 386 x 387 km, 45.0° (Epoch: 18 September)

Date Brightness Start Highest point End Pass type
(mag) Time Alt. Az. Time Alt. Az. Time Alt. Az.
30 Sep 2.9 01:00:58 10° SSW 01:01:42 14° S 01:01:42 14° S visible
01 Oct 2.9 00:04:22 10° SSE 00:05:04 11° SE 00:05:46 10° ESE visible
01 Oct 3.4 01:38:06 10° WSW 01:38:45 15° WSW 01:38:45 15° WSW visible
02 Oct 1.1 00:39:44 10° SW 00:42:44 41° SE 00:43:20 36° ESE visible
03 Oct 1.8 01:17:37 10° WSW 01:20:04 43° WNW 01:20:04 43° WNW visible
04 Oct 0.5 00:18:58 10° WSW 00:22:08 83° SSE 00:24:23 18° ENE visible
04 Oct 4.1 01:56:18 10° WNW 01:56:40 12° WNW 01:56:40 12° WNW visible
05 Oct 1.9 00:57:20 10° W 01:00:16 34° NNW 01:00:52 31° N visible
05 Oct 1.2 23:58:29 10° WSW 00:01:36 53° NNW 00:04:44 10° NE visible
06 Oct 3.5 01:36:09 10° WNW 01:37:16 16° NW 01:37:16 16° NW visible
